Location: Observatory
(52.1446°N, 0.4624°W)
Time: 16:31:21
(UTC+00:00)

ISS - Pass Details

Date: 30 November 2023
Orbit: 415 x 417 km, 51.6° (Epoch: 06 December)

Event Time Altitude Azimuth Distance (km) Brightness Sun altitude
Rises 16:24:58 0° 270° (W) 2,359 1.3 -4.8°
Reaches altitude 10° 16:27:04 10° 270° (W) 1,496 0.2 -5.1°
Maximum altitude 16:30:25 84° 183° (S) 425 -3.7 -5.5°
Drops below altitude 10° 16:33:47 10° 94° (E) 1,497 -1.5 -6.0°
Enters shadow 16:34:53 - 94° (E) 1,951 -0.9 -6.1°
